Flag for Germany Weather past 2 weeks in Witten, North Rhine-Westphalia, Germany

Now
68 °F

Fog.


Feels Like: 68 °F
Forecast: 59 / 76 °F
Wind: 3 mph from North

Location: Dortmund / Wickede

Current Time: Jul 26, 2014 at 12:11:41 PM

Latest Report: Jul 26, 2014 at 11:20 AM


Visibility: 3 mi

Pressure: 29.95 "Hg

Humidity: 83%

Dew point: 63 °F

Location of WittenLocation

Historic Weather in Witten — Graph

°F

Witten temperature yesterday

Maximum temperature yesterday: 70 °F (at 4:20 PM)
Minimum temperature yesterday: 59 °F (at 5:20 AM)
Average temperature yesterday: 64 °F

Past Weeks' High & Low Weather Summary

 TemperatureHumidityPressure
High90 °F (Jul 19, 1:20 PM)100% (Jul 21, 12:50 PM)30.18 "Hg (Jul 21, 12:50 PM)
Low55 °F (Jul 15, 5:20 AM)22% (Jul 19, 2:50 PM)29.71 "Hg (Jul 13, 6:50 PM)
Average71 °F65%29.97 "Hg
* Reported Jul 11 10:20 AM — Jul 26 10:50 AM, Witten, Weather by CustomWeather, © 2014

Note: Actual official high and low records may vary slightly from our data, if they occured in-between our weather recording intervals... More about our weather records

Advertising

Witten weather history for previous 24 hours

 ConditionsComfort  
Time TempWeatherWind HumidityBarometerVisibility
10:50 AM
Jul 26
64 °FFog.1 mph94%29.95 "Hg2 mi
10:20 AM63 °FFog.2 mph100%29.95 "Hg2 mi
9:50 AM63 °FFog.2 mph100%29.95 "Hg1 mi
9:20 AM61 °FFog.3 mph100%29.95 "Hg1 mi
8:50 AM61 °FFog.No wind100%29.95 "Hg0 mi
8:20 AM61 °FFog.2 mph100%29.95 "Hg0 mi
7:50 AM61 °FFog.1 mph100%29.92 "Hg0 mi
7:20 AM59 °FFog.3 mph100%29.92 "Hg0 mi
6:50 AM59 °FFog.8 mph100%29.92 "Hg0 mi
6:20 AM59 °FFog.5 mph100%29.92 "Hg0 mi
5:55 AM59 °FFog.5 mph100%29.92 "Hg1 mi
5:20 AM55 °FFog.2 mph100%29.92 "Hg2 mi
10:50 PM
Jul 25
61 °FClear.3 mph88%29.92 "Hg10 mi
10:20 PM63 °FSunny.3 mph83%29.92 "Hg10 mi
9:50 PM64 °FSunny.3 mph78%29.92 "Hg10 mi
9:20 PM66 °FSunny.5 mph73%29.92 "Hg10 mi
8:50 PM66 °FPassing clouds.6 mph73%29.92 "HgN/A
8:20 PM70 °FPassing clouds.5 mph64%29.92 "HgN/A
7:50 PM70 °FSunny.9 mph64%29.92 "Hg10 mi
7:20 PM70 °FPassing clouds.8 mph64%29.92 "HgN/A
6:50 PM68 °FScattered clouds.8 mph69%29.92 "HgN/A
6:20 PM70 °FPartly sunny.8 mph69%29.92 "HgN/A
5:50 PM70 °FPartly sunny.10 mph69%29.92 "HgN/A
5:20 PM70 °FPartly sunny.10 mph69%29.92 "HgN/A
4:50 PM68 °FPartly sunny.7 mph73%29.95 "HgN/A
4:20 PM70 °FPassing clouds.7 mph69%29.95 "HgN/A
3:50 PM68 °FBroken clouds.8 mph73%29.95 "HgN/A
3:20 PM66 °FScattered clouds.7 mph78%29.95 "HgN/A
2:20 PM64 °FPartly sunny.5 mph83%29.98 "HgN/A
1:50 PM63 °FDrizzle. Partly sunny.3 mph88%29.98 "HgN/A
1:20 PM63 °FPartly sunny.6 mph88%29.98 "HgN/A
12:50 PM63 °FPartly sunny.6 mph88%29.98 "HgN/A
12:20 PM63 °FPartly sunny.6 mph88%29.98 "Hg6 mi
Weather by CustomWeather, © 2014

See weather overviewHow to use our weather pages